TimeCDT,TemperatureF,Dew PointF,Humidity,Sea Level PressureIn,VisibilityMPH,Wind Direction,Wind SpeedMPH,Gust SpeedMPH,PrecipitationIn,Events,Conditions,WindDirDegrees,DateUTC
12:52 AM,59.0,57.0,93,29.99,7.0,ENE,9.2,-,N/A,,Overcast,60,2012-03-22 05:52:00
1:52 AM,57.9,57.0,97,30.00,6.0,ENE,8.1,-,N/A,,Overcast,60,2012-03-22 06:52:00
2:52 AM,57.9,57.0,97,30.00,5.0,ENE,9.2,-,N/A,,Overcast,70,2012-03-22 07:52:00
3:52 AM,57.9,55.9,93,29.98,6.0,NE,10.4,-,N/A,,Overcast,50,2012-03-22 08:52:00
4:52 AM,57.9,55.9,93,29.97,10.0,ENE,12.7,-,N/A,,Overcast,70,2012-03-22 09:52:00
5:52 AM,57.9,55.9,93,29.96,10.0,ENE,15.0,-,N/A,,Overcast,70,2012-03-22 10:52:00
6:52 AM,57.9,55.9,93,29.98,7.0,ENE,10.4,-,0.01,Rain,Light Rain,70,2012-03-22 11:52:00
7:52 AM,57.9,55.9,93,29.99,6.0,ENE,12.7,-,0.03,Rain,Light Rain,70,2012-03-22 12:52:00
8:23 AM,57.2,55.4,94,29.99,4.0,ENE,10.4,-,0.01,Rain,Light Rain,70,2012-03-22 13:23:00
8:52 AM,57.9,57.0,97,29.97,6.0,ENE,12.7,-,0.02,,Overcast,70,2012-03-22 13:52:00
9:06 AM,59.0,57.2,94,29.97,7.0,ENE,13.8,-,N/A,,Overcast,60,2012-03-22 14:06:00
9:52 AM,60.1,57.9,93,29.97,8.0,East,17.3,24.2,N/A,,Overcast,80,2012-03-22 14:52:00
10:03 AM,60.8,57.2,88,29.98,7.0,East,13.8,-,0.00,Rain,Light Rain,90,2012-03-22 15:03:00
10:52 AM,61.0,57.9,90,29.98,9.0,East,13.8,23.0,0.00,,Overcast,100,2012-03-22 15:52:00
11:28 AM,62.6,59.0,88,29.98,8.0,ESE,12.7,-,N/A,,Overcast,120,2012-03-22 16:28:00
11:52 AM,62.1,59.0,90,29.98,6.0,ESE,12.7,-,N/A,,Overcast,120,2012-03-22 16:52:00
12:08 PM,62.6,59.0,88,29.98,4.0,SE,13.8,-,0.00,Rain,Light Rain,130,2012-03-22 17:08:00
12:20 PM,60.8,60.8,100,29.98,2.5,SE,12.7,-,0.01,Rain,Light Rain,130,2012-03-22 17:20:00
12:28 PM,62.6,60.8,94,29.97,4.0,SE,15.0,-,0.01,Rain,Light Rain,130,2012-03-22 17:28:00
12:52 PM,62.1,60.1,93,29.96,4.0,ESE,12.7,-,0.01,Rain,Light Rain,120,2012-03-22 17:52:00
1:52 PM,62.1,60.1,93,29.95,8.0,ESE,13.8,-,0.01,,Overcast,120,2012-03-22 18:52:00
2:26 PM,62.6,60.8,94,29.95,5.0,SE,16.1,-,0.00,Rain,Light Rain,130,2012-03-22 19:26:00
2:52 PM,62.1,59.0,90,29.94,9.0,SE,13.8,-,0.00,,Overcast,140,2012-03-22 19:52:00
3:18 PM,62.6,59.0,88,29.93,6.0,SE,12.7,-,0.00,,Overcast,140,2012-03-22 20:18:00
3:52 PM,62.1,60.1,93,29.93,10.0,SSE,13.8,-,0.00,,Overcast,150,2012-03-22 20:52:00
4:45 PM,60.8,57.2,88,29.92,10.0,South,9.2,-,N/A,,Overcast,190,2012-03-22 21:45:00
4:52 PM,61.0,57.9,90,29.92,10.0,South,10.4,-,N/A,,Overcast,170,2012-03-22 21:52:00
5:52 PM,60.1,57.0,90,29.92,10.0,SSE,4.6,-,N/A,,Overcast,150,2012-03-22 22:52:00
5:59 PM,60.8,57.2,88,29.93,10.0,SSE,5.8,-,N/A,,Overcast,150,2012-03-22 22:59:00
6:15 PM,60.8,55.4,82,29.93,10.0,SSE,9.2,-,N/A,,Overcast,150,2012-03-22 23:15:00
6:28 PM,60.8,55.4,82,29.93,9.0,SSE,8.1,-,0.00,Rain,Light Rain,160,2012-03-22 23:28:00
6:44 PM,59.0,57.2,94,29.93,6.0,SE,6.9,-,0.01,Rain,Light Rain,140,2012-03-22 23:44:00
6:52 PM,59.0,55.9,90,29.93,6.0,SSE,12.7,-,0.01,Rain,Light Rain,150,2012-03-22 23:52:00
7:34 PM,57.2,55.4,94,29.94,10.0,South,4.6,-,0.00,,Mostly Cloudy,170,2012-03-23 00:34:00
7:52 PM,57.0,54.0,89,29.95,10.0,ESE,5.8,-,0.00,,Partly Cloudy,120,2012-03-23 00:52:00
9:52 PM,53.1,52.0,96,29.96,9.0,SE,5.8,-,N/A,,Clear,130,2012-03-23 02:52:00
10:52 PM,51.1,51.1,100,29.96,2.5,SE,4.6,-,N/A,,Clear,140,2012-03-23 03:52:00
11:00 PM,51.8,50.0,94,29.96,1.0,SSE,4.6,-,N/A,,Clear,150,2012-03-23 04:00:00
11:06 PM,51.8,50.0,94,29.96,0.5,SE,4.6,-,N/A,Fog,Fog,140,2012-03-23 04:06:00
11:52 PM,48.0,48.0,100,29.96,0.2,ESE,5.8,-,N/A,Fog,Fog,110,2012-03-23 04:52:00